1353099678344492,  0.01892183422, -0.00789486232,  0.00024962097, -0.00001354507,  0.00000946159, -0.00037605115,  0.01785896690,  0.00030565145,  0.00000290179,  0.00000148501,  0.00018523913,  0.05131921765,  0.00133065947,  0.00038053271, -0.00000810762,  0.00012369666, -0.00000507059, -0.00000024205,  0.00009096122, -0.00000016640,  0.00005730024
1353099735544680,  0.01602644228, -0.00770136132,  0.00023728417, -0.00001185906, -0.00001442380, -0.00026312696,  0.01894341202,  0.00016135002, -0.00000406148,  0.00000442319,  0.00025201935,  0.04145350227,  0.00053395728,  0.00093089056, -0.00003646769,  0.00008188977,  0.00001317335,  0.00000011848,  0.00009090333, -0.00000177963,  0.00004189987
1353099740944712,  0.01387449520, -0.00651055472,  0.00027555622, -0.00004534910, -0.00000980836, -0.00017182550,  0.01893303874,  0.00021150134,  0.00005621152, -0.00000189157,  0.00024182392,  0.03297838077,  0.00002459856,  0.00075111310, -0.00001564104,  0.00006068390, -0.00000207520, -0.00000370129,  0.00009363480,  0.00000053286,  0.00003618578
1353099744544721,  0.01279685331, -0.00515304562,  0.00034422258, -0.00000184085, -0.00000206139, -0.00009431598,  0.01820504218,  0.00032401889,  0.00001024112,  0.00000622851,  0.00020802592,  0.02705869230, -0.00005808967,  0.00042681870,  0.00000563700,  0.00007533844, -0.00001619003, -0.00000370159,  0.00009366619,  0.00000243763,  0.00003658401
1353099747944720,  0.01242923220, -0.00414038003,  0.00036681709,  0.00000622232,  0.00000028434, -0.00004567021,  0.01724022899,  0.00031863314, -0.00000302756,  0.00000549932,  0.00030130475,  0.02387782722,  0.00015790790,  0.00034041557,  0.00000047762,  0.00014630315, -0.00001742653, -0.00000143580,  0.00014341952,  0.00000201294,  0.00007601736
1353099753944755,  0.01132440438, -0.00345493356,  0.00035876424,  0.00000591464,  0.00000751194, -0.00000684547,  0.01449450762,  0.00028347442, -0.00000670765,  0.00000067132,  0.00023556184,  0.02054507603, -0.00001307928,  0.00021153754, -0.00000236781,  0.00006538636, -0.00000235334, -0.00000081278,  0.00004261285,  0.00000043725,  0.00002603481
1353099758144755,  0.01128555267, -0.00332386407,  0.00031548309,  0.00000500433,  0.00000880296,  0.00000610436,  0.01237282067,  0.00030658756, -0.00001968085, -0.00000556090,  0.00019677829,  0.01885739061, -0.00003399744,  0.00013953330, -0.00000308667,  0.00006384944, -0.00000008474,  0.00000077241,  0.00003731873,  0.00000045494,  0.00002422058
1353099762144767,  0.01127792288, -0.00345903786,  0.00027663447,  0.00000173762,  0.00001022247,  0.00000156855,  0.01074386600,  0.00037010758, -0.00005485233, -0.00001309039,  0.00016471782,  0.01799881513, -0.00009181153,  0.00006495840, -0.00002364922,  0.00006392397,  0.00000598200,  0.00000692342,  0.00003801212,  0.00000192107,  0.00002683214
1353099778344848,  0.01129223278, -0.00362689437,  0.00023299647, -0.00000065799,  0.00001222070, -0.00001242281,  0.00917250991,  0.00049538918, -0.00002470605, -0.00002223891,  0.00013965168,  0.01786046830, -0.00014790238, -0.00005241513, -0.00000965753,  0.00005623534,  0.00000996280,  0.00000120772,  0.00004124211,  0.00000088227,  0.00002390550
1353099782144834,  0.01139425271, -0.00378262372,  0.00019702510, -0.00000234209,  0.00001142011, -0.00003241063,  0.00803601722,  0.00064286447, -0.00002273499, -0.00002503419,  0.00011988772,  0.01885369777, -0.00021033344, -0.00015221624, -0.00000907038,  0.00005379606,  0.00001226126,  0.00000064300,  0.00003941391,  0.00000067066,  0.00002189798
1353099903145222,  0.01165037066, -0.00390917350,  0.00017708473, -0.00000416485,  0.00001072888, -0.00005849010,  0.00719892373,  0.00083895519, -0.00002465837, -0.00003237747,  0.00010568826,  0.02104871683, -0.00025244954, -0.00029280079, -0.00002077276,  0.00005175390,  0.00001461597,  0.00000149756,  0.00004541107,  0.00000123890,  0.00002417402
1353099907345236,  0.01190035576, -0.00377612735,  0.00016034955,  0.00000129115,  0.00001070870, -0.00007896106,  0.00628203015,  0.00100437862, -0.00003771748, -0.00002100910,  0.00008881893,  0.02369980445, -0.00043596249, -0.00022884225, -0.00003654976,  0.00006023710,  0.00001027038,  0.00000279262,  0.00003331468,  0.00000107001,  0.00002255972
1353099910945244,  0.01190977603, -0.00340794211,  0.00011905698,  0.00000801332,  0.00000934696, -0.00008548318,  0.00551590386,  0.00113972535, -0.00004718209, -0.00000673494,  0.00006566001,  0.02542045675, -0.00053284598, -0.00010173025, -0.00005643095,  0.00006070879,  0.00000407222,  0.00000432148,  0.00002639402,  0.00000052190,  0.00002099481
1353099914545257,  0.01166807150, -0.00294417137,  0.00010590974,  0.00001411364,  0.00000767190, -0.00008612554,  0.00493021412,  0.00110576394, -0.00004545039,  0.00000523364,  0.00005147065,  0.02591618119, -0.00053846275,  0.00005195643, -0.00008568464,  0.00006120832,  0.00000087813,  0.00000629384,  0.00002735461,  0.00000023402,  0.00002414077
1353099918345268,  0.01115775097, -0.00249709951,  0.00010816523,  0.00000960314,  0.00000415269, -0.00007777309,  0.00452768660,  0.00094054275, -0.00003204437,  0.00001483246,  0.00004493756,  0.02458884883, -0.00045164407,  0.00019934802, -0.00005721930,  0.00005969534, -0.00000525546,  0.00000506358,  0.00002937836, -0.00000070690,  0.00002437019
1353099922145278,  0.01059273622, -0.00213609275,  0.00010641617,  0.00000253145,  0.00000232153, -0.00006280420,  0.00426274354,  0.00076284667, -0.00002261207,  0.00001225914,  0.00004133165,  0.02245139748, -0.00038378318,  0.00016685246, -0.00002726471,  0.00005909668, -0.00000366499,  0.00000356948,  0.00002505132, -0.00000029334,  0.00001974346
1353099925745296,  0.01013886363, -0.00183832483,  0.00010506463,  0.00000134124,  0.00000218769, -0.00005224042,  0.00404662195,  0.00063303890, -0.00001700706,  0.00001079002,  0.00003865317,  0.02075936758, -0.00030964984,  0.00016580940, -0.00002180279,  0.00005782117, -0.00000606148,  0.00000333892,  0.00002549009, -0.00000048292,  0.00001945863
1353099929345291,  0.00973779109, -0.00157319429,  0.00010121069,  0.00000097066,  0.00000052821, -0.00004096623,  0.00386096230,  0.00053129907, -0.00001447063,  0.00000847317,  0.00003652219,  0.01924442351, -0.00025759613,  0.00011392412, -0.00002502600,  0.00005750575, -0.00000443691,  0.00000398379,  0.00002462791, -0.00000053668,  0.00001943667
1353099932945345,  0.00943948793, -0.00133738663,  0.00010437784, -0.00000052331, -0.00000012567, -0.00003560895,  0.00366165518,  0.00047054204, -0.00001187961,  0.00000624329,  0.00003248240,  0.01844738946, -0.00023197413,  0.00007428368, -0.00001845779,  0.00005764048, -0.00000263831,  0.00000350504,  0.00002372437, -0.00000030811,  0.00001897278
1353099936545321,  0.00916700223, -0.00113546285,  0.00011097268, -0.00000163301, -0.00000062158, -0.00002855143,  0.00350325040,  0.00041789648, -0.00000883480,  0.00000520299,  0.00003225692,  0.01771597661, -0.00018708608,  0.00005625830, -0.00001281437,  0.00005427529, -0.00000585773,  0.00000298734,  0.00002399460, -0.00000060008,  0.00001837267
1353099940145332,  0.00896384582, -0.00095067942,  0.00013268582, -0.00000312561, -0.00000229666, -0.00002520916,  0.00334081412,  0.00038882817, -0.00000739325,  0.00000081173,  0.00002929957,  0.01762649491, -0.00018076727, -0.00003203924, -0.00000931077,  0.00005603587,  0.00000136082,  0.00000286520,  0.00002682494,  0.00000002417,  0.00002138335
1353099943745341,  0.00880653472, -0.00077851450,  0.00018801256, -0.00000349260, -0.00000641673, -0.00002662879,  0.00316258788,  0.00038331306, -0.00000529288, -0.00000278669,  0.00001644712,  0.01845090519, -0.00018193031, -0.00013685409, -0.00001831377,  0.00005095514,  0.00000671816,  0.00000380116,  0.00002909899,  0.00000080574,  0.00002028126
1353099947345342,  0.00872793670, -0.00060256054,  0.00027890109, -0.00000205047, -0.00001023305, -0.00004943061,  0.00303962965,  0.00040129542, -0.00000320796, -0.00000477091,  0.00001092533,  0.02036030628, -0.00019832281, -0.00024226117, -0.00002598226,  0.00003905921,  0.00001087190,  0.00000206332,  0.00003333160,  0.00000147652,  0.00001824573
1353099951145364,  0.00870266995, -0.00035627643,  0.00033834340, -0.00000559625, -0.00000684066, -0.00005832688,  0.00303717942,  0.00046595907, -0.00000483527, -0.00000455950, -0.00001100317,  0.02301594587, -0.00035450360, -0.00019722417, -0.00003856802,  0.00004087993,  0.00000769143,  0.00000167893,  0.00003057339,  0.00000101394,  0.00001999601
1353099956145402,  0.00824073787, -0.00031031614,  0.00026930676, -0.00000782649,  0.00000421597, -0.00004425929,  0.00305068526,  0.00048253690, -0.00000768620,  0.00000397579, -0.00001406742,  0.02203825898, -0.00033434026,  0.00019098705, -0.00000856146,  0.00004392221, -0.00000913993,  0.00000040860,  0.00002553059, -0.00000004612,  0.00001755775
1353099959745392,  0.00783345664, -0.00035696615,  0.00023610071, -0.00000747374,  0.00000554101, -0.00003582325,  0.00303181545,  0.00044031280, -0.00000648235,  0.00000397625, -0.00000927908,  0.02019446623, -0.00027071601,  0.00018839579,  0.00000060243,  0.00004618276, -0.00000819464, -0.00000004395,  0.00002175011,  0.00000011251,  0.00001511571
1353099963345391,  0.00746823750, -0.00040666949,  0.00020368698, -0.00000776744,  0.00000453678, -0.00004010824,  0.00303425158,  0.00040169148, -0.00000560735,  0.00000302903, -0.00000645556,  0.01856248370, -0.00023678535,  0.00015033157,  0.00000107903,  0.00005318463, -0.00000432941, -0.00000003913,  0.00002555352,  0.00000007478,  0.00002114909
1353099967145409,  0.00710652429, -0.00045879143,  0.00018063815, -0.00000981905,  0.00000457948, -0.00003538029,  0.00302090926,  0.00035933325, -0.00000410126,  0.00000210665, -0.00000208785,  0.01703568865, -0.00017901005,  0.00013949243,  0.00000603727,  0.00005256361, -0.00000620617, -0.00000111849,  0.00002564179,  0.00000028421,  0.00002118306
1353099970745447,  0.00678802205, -0.00048608406,  0.00012889355, -0.00000561579,  0.00000279236, -0.00002998220,  0.00302041223,  0.00034767337, -0.00000408209,  0.00000237001, -0.00000112522,  0.01592251475, -0.00016383288,  0.00009740760,  0.00000257559,  0.00005553058, -0.00000170099, -0.00000099654,  0.00002448040,  0.00000002954,  0.00002173630
1353099974345422,  0.00653039325, -0.00050708224,  0.00009532755, -0.00000352694,  0.00000219342, -0.00002542994,  0.00302057423,  0.00032931634, -0.00000361605,  0.00000266766, -0.00000069896,  0.01498504881, -0.00013354315,  0.00009217649,  0.00000174286,  0.00005682297, -0.00000246595, -0.00000128147,  0.00002524021,  0.00000004552,  0.00002276909
1353099977945444,  0.00632029419, -0.00052551607,  0.00005809167,  0.00000096634,  0.00000135758, -0.00002021967,  0.00300706758,  0.00031577476, -0.00000312718,  0.00000397435,  0.00000034710,  0.01413664315, -0.00010213944,  0.00009102675,  0.00000099481,  0.00005345582, -0.00000448217, -0.00000102138,  0.00002468428,  0.00000011353,  0.00002194471
1353099981545451,  0.00616151736, -0.00053639664,  0.00003679041,  0.00000291745,  0.00000098481, -0.00001399539,  0.00300307917,  0.00029298204, -0.00000313836,  0.00000417378,  0.00000022499,  0.01339086744, -0.00009068731,  0.00007528290,  0.00000218989,  0.00005356543, -0.00000185570, -0.00000094304,  0.00002352719,  0.00000004818,  0.00002145119
1353099985145465,  0.00604843061, -0.00054442355,  0.00002863217,  0.00000273454,  0.00000070125, -0.00000830887,  0.00299207064,  0.00026078605, -0.00000268701,  0.00000383207,  0.00000007315,  0.01268163561, -0.00007503399,  0.00006910923, -0.00000013632,  0.00005123872, -0.00000127687, -0.00000008464,  0.00002293348, -0.00000000339,  0.00002082964
1353099988745473,  0.00597594611, -0.00054945133,  0.00002391439,  0.00000209195,  0.00000046235, -0.00000743689,  0.00298455116,  0.00022792675, -0.00000221949,  0.00000364900,  0.00000156669,  0.01199095079, -0.00005865937,  0.00006732200,  0.00000030886,  0.00004930843, -0.00000052992, -0.00000036397,  0.00002082675,  0.00000000083,  0.00001855150
1353099992345476,  0.00590592685, -0.00054950480,  0.00001403418,  0.00000440184,  0.00000000089, -0.00000832457,  0.00296014663,  0.00020577653, -0.00000188938,  0.00000459951,  0.00000344492,  0.01136908003, -0.00004388803,  0.00006869504,  0.00000093600,  0.00003724822, -0.00000415250, -0.00000047524,  0.00001905718,  0.00000016592,  0.00001468403
1353099995945492,  0.00581759018, -0.00054876392,  0.00001262299,  0.00000500140, -0.00000029277, -0.00000456490,  0.00291805000,  0.00017475355, -0.00000202931,  0.00000454888,  0.00000346660,  0.01072278385, -0.00004246897,  0.00005825586, -0.00000055826,  0.00002375075, -0.00000072629,  0.00000015776,  0.00001623406,  0.00000008371,  0.00001047675
1353099999545505,  0.00579265516, -0.00054825946,  0.00001472897,  0.00000493345, -0.00000071071,  0.00000049482,  0.00290685241,  0.00014652761, -0.00000183579,  0.00000432833,  0.00000097944,  0.01024713852, -0.00004065656,  0.00004537125,  0.00000084736,  0.00002115461, -0.00000027332,  0.00000012947,  0.00001584784,  0.00000017540,  0.00000937633
1353100003145510,  0.00580520543, -0.00055029044,  0.00001760485,  0.00000443430,  0.00000046077,  0.00000615789,  0.00289935649,  0.00012192722, -0.00000264797,  0.00000298558,  0.00000080547,  0.00993981666, -0.00004824694,  0.00001451599,  0.00000098259,  0.00002130061, -0.00000053123,  0.00000002437,  0.00001361757,  0.00000006836,  0.00000845960
1353100006545521,  0.00583954690, -0.00055765932,  0.00001506241,  0.00000357043,  0.00000166614,  0.00000467888,  0.00290437464,  0.00010880194, -0.00000359825,  0.00000186194,  0.00000267573,  0.00991375869, -0.00005331892, -0.00001198536, -0.00000225373,  0.00002449114,  0.00000135089,  0.00000047893,  0.00001820625,  0.00000006497,  0.00001264265
1353100010345532,  0.00589136680, -0.00058605785,  0.00002135554,  0.00000138879,  0.00000121957,  0.00000620611,  0.00293555058,  0.00010780300, -0.00000337711, -0.00000010375, -0.00000077688,  0.01034406333, -0.00005858914, -0.00005226761, -0.00000392882,  0.00002946351,  0.00000427491,  0.00000065252,  0.00002218779,  0.00000033525,  0.00001542797
1353100013945545,  0.00612016618, -0.00064484512,  0.00003207737,  0.00000018125, -0.00000061975,  0.00000536387,  0.00309868382,  0.00010954315, -0.00000188094,  0.00000159064, -0.00000434380,  0.01103587548, -0.00008094505, -0.00001930565, -0.00000167433,  0.00007741133,  0.00000167151,  0.00000243047,  0.00003039717,  0.00000019153,  0.00002620758
1353100017545555,  0.00623382176, -0.00070864889,  0.00004633892,  0.00000050343, -0.00000105444,  0.00001136708,  0.00311102729,  0.00009918940, -0.00000053277,  0.00000254291, -0.00000503197,  0.01119056981, -0.00006430858,  0.00000100732, -0.00000081100,  0.00008336216, -0.00000404967,  0.00000311524,  0.00003295006, -0.00000018921,  0.00002802869
1353100021145565,  0.00633899998, -0.00075256292,  0.00006708146,  0.00000010981, -0.00000110434,  0.00001115103,  0.00308389451,  0.00008728686,  0.00000217360,  0.00000179808,  0.00000944126,  0.01116167531, -0.00000434341,  0.00000117750,  0.00000207543,  0.00007402703, -0.00000758931,  0.00000243670,  0.00003275918, -0.00000034197,  0.00002548798
1353100024745577,  0.00637392378, -0.00075771130,  0.00008479311, -0.00000335460, -0.00000042290,  0.00001078530,  0.00302233263,  0.00007990085,  0.00000175663, -0.00000045707,  0.00001841294,  0.01113685879,  0.00000710172, -0.00000361481,  0.00000209371,  0.00005412090, -0.00000461330,  0.00000239782,  0.00003045179, -0.00000024918,  0.00002253945
1353100028545585,  0.00632261184, -0.00070412654,  0.00008801250, -0.00000199387,  0.00000017722,  0.00001153900,  0.00294022897,  0.00008019949,  0.00000199183, -0.00000228423,  0.00001977874,  0.01096264371, -0.00000390432, -0.00001059068,  0.00000021541,  0.00002860409, -0.00000015873, -0.00000033482,  0.00002483459,  0.00000064919,  0.00001470427
1353100032145607,  0.00642314668, -0.00064370436,  0.00008880979, -0.00000480841, -0.00000001697,  0.00001217877,  0.00296042603,  0.00009175908, -0.00000123619, -0.00000300667,  0.00001796167,  0.01114718183,  0.00000560908, -0.00003259084, -0.00000102954,  0.00003205279, -0.00000035470, -0.00000023043,  0.00003352802,  0.00000053089,  0.00002105084
1353100041945621,  0.00653656674, -0.00063719888,  0.00009378311,  0.00000010669, -0.00000312061,  0.00001750316,  0.00294858603,  0.00008871831,  0.00000129108,  0.00000026701,  0.00001190484,  0.01142921414,  0.00004890712, -0.00000413639, -0.00000016746,  0.00005140689,  0.00000207311,  0.00000176785,  0.00004252151,  0.00000042898,  0.00003584726
1353100045945724,  0.00648006165, -0.00067643105,  0.00010853872, -0.00000185762, -0.00000303909,  0.00002073284,  0.00283753605,  0.00008535509,  0.00000012995,  0.00000036195,  0.00001773440,  0.01153259568,  0.00004095588, -0.00002051272,  0.00000235172,  0.00002775620, -0.00000317261,  0.00000068560,  0.00003505406,  0.00000010881,  0.00001750670
1353100049545643,  0.00641846786, -0.00068675376,  0.00012838088, -0.00000223695, -0.00000351366,  0.00001487560,  0.00270075342,  0.00008586732,  0.00000080559, -0.00000048865,  0.00001672914,  0.01186888587,  0.00001434816, -0.00005390984, -0.00000111335,  0.00002364922,  0.00000202834,  0.00000076668,  0.00002848544,  0.00000051619,  0.00001403864
1353100053145650,  0.00636824608, -0.00066363406,  0.00015504541, -0.00000195670, -0.00000436185,  0.00000683239,  0.00256754999,  0.00008950118,  0.00000166580, -0.00000082736,  0.00001908863,  0.01245398065, -0.00000547972, -0.00007745632, -0.00000427678,  0.00002497705,  0.00000180312,  0.00000076370,  0.00002739182,  0.00000063393,  0.00001425975
1353100057945692,  0.00628884667, -0.00061595642,  0.00017528586, -0.00000405226, -0.00000213182, -0.00000174859,  0.00241681979,  0.00009861410,  0.00000399989, -0.00000220948,  0.00001869766,  0.01319169925, -0.00008669753, -0.00006953352,  0.00000590870,  0.00002530882,  0.00000159966, -0.00000070354,  0.00002186791,  0.00000003980,  0.00001276375
1353100070145699,  0.00629239449, -0.00054897262,  0.00022300688, -0.00000325984, -0.00000504173, -0.00000832402,  0.00228215055,  0.00010059006,  0.00000424660, -0.00000137655,  0.00001353131,  0.01464193349, -0.00006566357, -0.00015031864, -0.00001004034,  0.00002894831,  0.00000482115,  0.00000010209,  0.00002660539,  0.00000067994,  0.00001569140
1353100073945717,  0.00631305867, -0.00046824092,  0.00027928296, -0.00000448252, -0.00000665233, -0.00001960061,  0.00221491722,  0.00009993006,  0.00000588991, -0.00000157945,  0.00000497025,  0.01638800654, -0.00014455558, -0.00017224878, -0.00001615018,  0.00003717027,  0.00000934620,  0.00000008608,  0.00002975877,  0.00000064221,  0.00001897906
1353100083545737,  0.00623792702, -0.00040040990,  0.00019083097, -0.00000445701,  0.00000294448, -0.00001539713,  0.00217554242,  0.00016200089, -0.00000177742, -0.00000235854,  0.00000028757,  0.01695257038, -0.00022368588,  0.00008680418,  0.00002951728,  0.00004525059, -0.00000960054, -0.00000342399,  0.00002713762,  0.00000179902,  0.00002044618
1353100087145746,  0.00613623627, -0.00036359257,  0.00013418238, -0.00000136141,  0.00000183550, -0.00001077757,  0.00211406024,  0.00019225368, -0.00000174193, -0.00000203244,  0.00000718762,  0.01660450859, -0.00021456873,  0.00000380837,  0.00000613811,  0.00004547641, -0.00000097197, -0.00000140281,  0.00002147117,  0.00000010860,  0.00001855321
1353100090745789,  0.00607602820, -0.00030626969,  0.00008885428,  0.00000025653,  0.00000197594, -0.00001096546,  0.00206110363,  0.00022186672, -0.00000239711, -0.00000193717,  0.00000456842,  0.01702478238, -0.00022100024, -0.00005980160,  0.00000632636,  0.00004594737,  0.00000277597, -0.00000122158,  0.00002101219, -0.00000014045,  0.00001802981
1353100094545769,  0.00602126934, -0.00025677097,  0.00005934492,  0.00000056958,  0.00000231433, -0.00000870994,  0.00202232810,  0.00024183632, -0.00000254474, -0.00000209194,  0.00000272685,  0.01747381445, -0.00022678530, -0.00007412012,  0.00001409831,  0.00004485745,  0.00000320753, -0.00000159557,  0.00002190916, -0.00000025233,  0.00001873843
1353100097945815,  0.00598221807, -0.00021137898,  0.00001979463,  0.00000222847,  0.00000289159, -0.00001181559,  0.00201480064,  0.00026670507, -0.00000346243, -0.00000190290, -0.00000007214,  0.01824311489, -0.00025183799, -0.00006792903,  0.00000033490,  0.00004839441,  0.00000285735, -0.00000061049,  0.00002102197, -0.00000001024,  0.00001795940
1353100102945996,  0.00591073797, -0.00017862086, -0.00003289696,  0.00000356073,  0.00000314300, -0.00000730479,  0.00202345379,  0.00029389935, -0.00000451771, -0.00000137524, -0.00000797564,  0.01903025127, -0.00028413542, -0.00005655378,  0.00000840363,  0.00004777943,  0.00000461588, -0.00000135641,  0.00001688378, -0.00000015567,  0.00001382144
1353100106945796,  0.00588171071, -0.00018276360, -0.00006985542,  0.00000609784,  0.00000131584, -0.00000504663,  0.00203814265,  0.00030602055, -0.00000521830,  0.00000080875, -0.00001070175,  0.01911438412, -0.00029050197,  0.00005087401,  0.00000708210,  0.00004918673, -0.00000293625, -0.00000113641,  0.00001734555,  0.00000011921,  0.00001462421
1353100110545810,  0.00586239037, -0.00019953052, -0.00009455803,  0.00000798931,  0.00000014988, -0.00000044920,  0.00201793232,  0.00030327988, -0.00000491107,  0.00000208860, -0.00000638928,  0.01823693834, -0.00024996149,  0.00007959334,  0.00000075540,  0.00004867968, -0.00000456006, -0.00000044603,  0.00001749227,  0.00000005724,  0.00001422613
1353100114145847,  0.00585660252, -0.00020939663, -0.00007913910,  0.00000590515,  0.00000030542,  0.00000033186,  0.00199876387,  0.00028952738, -0.00000466557,  0.00000139565, -0.00000443139,  0.01758961575, -0.00023230019,  0.00007501666,  0.00001133082,  0.00004639117, -0.00000400411, -0.00000155616,  0.00001710877,  0.00000023142,  0.00001401073
1353100117745826,  0.00586102686, -0.00021021703, -0.00008508013,  0.00000619963,  0.00000070814,  0.00000070856,  0.00198026808,  0.00028231937, -0.00000456404,  0.00000111013, -0.00000261126,  0.01695105253, -0.00022080067,  0.00004934318,  0.00000766716,  0.00004537936, -0.00000110573, -0.00000099355,  0.00001637963,  0.00000007780,  0.00001377564
1353100121345837,  0.00586409715, -0.00020241773, -0.00008296235,  0.00000542738,  0.00000074911, -0.00000021345,  0.00197067105,  0.00027557507, -0.00000446089,  0.00000069857, -0.00000297586,  0.01653704465, -0.00021619310,  0.00004124083,  0.00000576416,  0.00004587599,  0.00000006996, -0.00000084217,  0.00001631782, -0.00000003724,  0.00001383129
1353100124745847,  0.00585815390, -0.00018927375, -0.00007727795,  0.00000485763, -0.00000009170, -0.00000192383,  0.00195581451,  0.00026708843, -0.00000406745,  0.00000124115, -0.00000133881,  0.01596874919, -0.00019296182,  0.00006888639,  0.00000719735,  0.00004454765, -0.00000404115, -0.00000084140,  0.00001664082,  0.00000014894,  0.00001361366
1353100128345854,  0.00583924223, -0.00017089443, -0.00006665535,  0.00000393409,  0.00000050611, -0.00000277867,  0.00194459304,  0.00025820733, -0.00000388435,  0.00000041345,  0.00000049441,  0.01537634936, -0.00018324120,  0.00004035531,  0.00000326680,  0.00004496837, -0.00000031809, -0.00000036179,  0.00001598085,  0.00000003082,  0.00001350978
1353100131945861,  0.00580250243, -0.00014718222, -0.00005998853,  0.00000301342,  0.00000027137, -0.00000429858,  0.00194005305,  0.00025418130, -0.00000377806,  0.00000023181,  0.00000013188,  0.01499144816, -0.00017743933,  0.00004328645,  0.00000294591,  0.00004630944, -0.00000120818, -0.00000044551,  0.00001610437, -0.00000000762,  0.00001366676